When you browse on this site, cookies collect data to enhance your experience and personalize the content and advertising you see.
Visit our Privacy Policy to learn more. By continuing to use the site, you agree to this use of cookies and data.
  • In Netherlands
  • List of Countries
  • For 7 days
  • Water Temperature
  • Weather Map
  • Weather Widgets
  • user-avatar
    Login

    Hourly Weather Northallerton

    Today, 19 September, Thursday

    Time Temperature Precipitation Wind Pressure Humidity
    00:00 +12°C° 0 mm 1 mps 769 mmHg 90%
    01:00 +11°C° 0 mm 1 mps 768 mmHg 90%
    02:00 +11°C° 0 mm 1 mps 768 mmHg 90%
    03:00 +11°C° 0 mm 1 mps 768 mmHg 90%
    04:00 +11°C° 0 mm 1 mps 768 mmHg 90%
    05:00 +11°C° 0 mm 1 mps 768 mmHg 90%
    06:00 +11°C° 0 mm 1 mps 768 mmHg 90%
    07:00 +13°C° 0 mm 1 mps 768 mmHg 84%
    08:00 +14°C° 0 mm 1 mps 769 mmHg 78%
    09:00 +16°C° 0 mm 1 mps 769 mmHg 73%
    10:00 +18°C° 0 mm 1 mps 769 mmHg 69%
    11:00 +20°C° 0 mm 1 mps 769 mmHg 65%
    12:00 +21°C° 0 mm 1 mps 769 mmHg 62%
    13:00 +21°C° 0 mm 1 mps 768 mmHg 62%
    14:00 +21°C° 0 mm 1 mps 768 mmHg 62%
    15:00 +21°C° 0 mm 2 mps 768 mmHg 62%
    16:00 +20°C° 0 mm 1 mps 768 mmHg 69%
    17:00 +19°C° 0 mm 1 mps 768 mmHg 76%
    18:00 +18°C° 0 mm 1 mps 767 mmHg 83%
    19:00 +16°C° 0 mm 1 mps 768 mmHg 85%
    20:00 +15°C° 0 mm 1 mps 768 mmHg 88%
    21:00 +14°C° 0 mm 1 mps 768 mmHg 90%
    22:00 +14°C° 0 mm 1 mps 768 mmHg 90%
    23:00 +13°C° 0 mm 0 mps 768 mmHg 91%

    Tomorrow, 20 September, Friday

    Time Temperature Precipitation Wind Pressure Humidity
    00:00 +13°C° 0 mm 0 mps 767 mmHg 91%
    01:00 +12°C° 0 mm 0 mps 767 mmHg 92%
    02:00 +13°C° 0 mm 1 mps 767 mmHg 92%
    03:00 +13°C° 0 mm 1 mps 766 mmHg 92%
    04:00 +13°C° 0 mm 1 mps 766 mmHg 92%
    05:00 +12°C° 0 mm 1 mps 766 mmHg 92%
    06:00 +12°C° 0 mm 1 mps 765 mmHg 92%
    07:00 +14°C° 0 mm 1 mps 766 mmHg 87%
    08:00 +15°C° 0 mm 2 mps 766 mmHg 81%
    09:00 +17°C° 0 mm 2 mps 766 mmHg 75%
    10:00 +18°C° 0 mm 2 mps 765 mmHg 71%
    11:00 +19°C° 0 mm 3 mps 765 mmHg 66%
    12:00 +20°C° 0 mm 4 mps 765 mmHg 62%
    13:00 +21°C° 0 mm 4 mps 764 mmHg 62%
    14:00 +21°C° 0 mm 4 mps 763 mmHg 62%
    15:00 +21°C° 0 mm 4 mps 763 mmHg 61%
    16:00 +19°C° 0 mm 4 mps 762 mmHg 67%
    17:00 +18°C° 0 mm 3 mps 762 mmHg 73%
    18:00 +16°C° 0 mm 3 mps 761 mmHg 79%
    19:00 +14°C° 0 mm 3 mps 761 mmHg 82%
    20:00 +13°C° 0 mm 3 mps 761 mmHg 86%
    21:00 +12°C° 0 mm 3 mps 761 mmHg 89%
    22:00 +12°C° 0 mm 3 mps 761 mmHg 91%
    23:00 +11°C° 0 mm 3 mps 760 mmHg 92%

    Day after tomorrow, 21 September, Saturday

    Time Temperature Precipitation Wind Pressure Humidity
    00:00 +11°C° 0 mm 3 mps 760 mmHg 93%
    01:00 +11°C° 0 mm 3 mps 760 mmHg 94%
    02:00 +11°C° 0 mm 3 mps 759 mmHg 95%
    03:00 +11°C° 0 mm 3 mps 759 mmHg 96%
    04:00 +11°C° 0 mm 3 mps 758 mmHg 96%
    05:00 +11°C° 0 mm 3 mps 758 mmHg 96%
    06:00 +11°C° 0 mm 3 mps 757 mmHg 95%
    07:00 +12°C° 0 mm 4 mps 757 mmHg 88%
    08:00 +14°C° 0 mm 5 mps 756 mmHg 81%
    09:00 +16°C° 0 mm 6 mps 756 mmHg 74%
    10:00 +17°C° 0 mm 6 mps 756 mmHg 69%
    11:00 +19°C° 0 mm 6 mps 755 mmHg 64%
    12:00 +20°C° 0 mm 7 mps 755 mmHg 59%
    13:00 +20°C° 0 mm 7 mps 754 mmHg 59%
    14:00 +20°C° 0 mm 6 mps 753 mmHg 59%
    15:00 +20°C° 0 mm 6 mps 752 mmHg 59%
    16:00 +17°C° 0 mm 5 mps 752 mmHg 65%
    17:00 +17°C° 0 mm 4 mps 752 mmHg 71%
    18:00 +14°C° 0 mm 3 mps 752 mmHg 77%
    19:00 +13°C° 0 mm 3 mps 751 mmHg 80%
    20:00 +14°C° 0 mm 2 mps 751 mmHg 84%
    21:00 +13°C° 0 mm 2 mps 751 mmHg 87%
    22:00 +13°C° 0 mm 2 mps 751 mmHg 88%
    23:00 +13°C° 0 mm 1 mps 750 mmHg 89%

    22 September, Sunday

    Time Temperature Precipitation Wind Pressure Humidity
    00:00 +13°C° 0 mm 1 mps 750 mmHg 90%
    01:00 +13°C° 0 mm 1 mps 749 mmHg 90%
    02:00 +13°C° 0 mm 1 mps 749 mmHg 90%
    03:00 +13°C° 0 mm 1 mps 749 mmHg 90%
    04:00 +14°C° 0.1 mm 1 mps 748 mmHg 90%
    05:00 +14°C° 0.1 mm 1 mps 748 mmHg 91%
    06:00 +14°C° 0.1 mm 1 mps 748 mmHg 92%
    07:00 +15°C° 0.1 mm 1 mps 747 mmHg 89%
    08:00 +17°C° 0.1 mm 2 mps 747 mmHg 85%
    09:00 +19°C° 0.1 mm 2 mps 747 mmHg 82%
    10:00 +20°C° 0.1 mm 2 mps 747 mmHg 78%
    11:00 +21°C° 0.1 mm 3 mps 747 mmHg 74%
    12:00 +22°C° 0.1 mm 3 mps 747 mmHg 70%
    13:00 +22°C° 0.1 mm 3 mps 747 mmHg 73%
    14:00 +21°C° 0.1 mm 4 mps 746 mmHg 75%
    15:00 +21°C° 0.1 mm 4 mps 746 mmHg 77%
    16:00 +20°C° 0.5 mm 3 mps 747 mmHg 82%
    17:00 +18°C° 0.5 mm 2 mps 747 mmHg 87%
    18:00 +17°C° 0.5 mm 2 mps 747 mmHg 92%
    19:00 +16°C° 0 mm 2 mps 747 mmHg 92%
    20:00 +16°C° 0 mm 2 mps 748 mmHg 92%
    21:00 +15°C° 0 mm 2 mps 748 mmHg 92%
    22:00 +15°C° 0 mm 2 mps 748 mmHg 92%
    23:00 +15°C° 0 mm 2 mps 748 mmHg 91%

    23 September, Monday

    Time Temperature Precipitation Wind Pressure Humidity
    00:00 +14°C° 0 mm 2 mps 748 mmHg 90%
    01:00 +14°C° 0 mm 1 mps 749 mmHg 91%
    02:00 +14°C° 0 mm 1 mps 749 mmHg 91%
    03:00 +14°C° 0 mm 1 mps 749 mmHg 92%
    04:00 +14°C° 0 mm 1 mps 749 mmHg 92%
    05:00 +13°C° 0 mm 1 mps 749 mmHg 93%
    06:00 +13°C° 0 mm 1 mps 750 mmHg 93%
    07:00 +14°C° 0 mm 2 mps 750 mmHg 90%
    08:00 +15°C° 0 mm 2 mps 750 mmHg 86%
    09:00 +16°C° 0 mm 3 mps 750 mmHg 82%
    10:00 +17°C° 0 mm 3 mps 751 mmHg 78%
    11:00 +18°C° 0 mm 3 mps 751 mmHg 73%
    12:00 +19°C° 0 mm 3 mps 751 mmHg 68%
    13:00 +19°C° 0 mm 3 mps 751 mmHg 68%
    14:00 +19°C° 0 mm 3 mps 751 mmHg 68%
    15:00 +19°C° 0 mm 3 mps 750 mmHg 67%
    16:00 +17°C° 0 mm 2 mps 751 mmHg 72%
    17:00 +16°C° 0 mm 2 mps 751 mmHg 77%
    18:00 +15°C° 0 mm 1 mps 751 mmHg 82%
    19:00 +14°C° 0 mm 1 mps 751 mmHg 83%
    20:00 +14°C° 0 mm 1 mps 751 mmHg 84%
    21:00 +13°C° 0 mm 1 mps 751 mmHg 85%
    22:00 +13°C° 0 mm 1 mps 751 mmHg 85%
    23:00 +13°C° 0 mm 2 mps 750 mmHg 86%

    24 September, Tuesday

    Time Temperature Precipitation Wind Pressure Humidity
    00:00 +13°C° 0 mm 2 mps 750 mmHg 86%
    01:00 +13°C° 0 mm 2 mps 750 mmHg 89%
    02:00 +14°C° 0 mm 2 mps 750 mmHg 91%
    03:00 +14°C° 0 mm 2 mps 750 mmHg 93%
    04:00 +14°C° 0 mm 2 mps 749 mmHg 94%
    05:00 +14°C° 0 mm 2 mps 749 mmHg 95%
    06:00 +14°C° 0 mm 2 mps 749 mmHg 96%
    07:00 +15°C° 0 mm 2 mps 748 mmHg 94%
    08:00 +16°C° 0 mm 3 mps 748 mmHg 91%
    09:00 +17°C° 0 mm 4 mps 748 mmHg 88%
    10:00 +18°C° 0 mm 4 mps 747 mmHg 85%
    11:00 +19°C° 0 mm 5 mps 746 mmHg 81%
    12:00 +19°C° 0 mm 5 mps 745 mmHg 78%
    13:00 +17°C° 1.9 mm 5 mps 744 mmHg 83%
    14:00 +16°C° 1.9 mm 5 mps 743 mmHg 89%
    15:00 +15°C° 1.9 mm 5 mps 742 mmHg 94%
    16:00 +15°C° 3.5 mm 5 mps 742 mmHg 94%
    17:00 +15°C° 3.5 mm 5 mps 741 mmHg 95%
    18:00 +15°C° 3.5 mm 6 mps 741 mmHg 95%
    19:00 +15°C° 1 mm 6 mps 741 mmHg 93%
    20:00 +14°C° 1 mm 7 mps 741 mmHg 91%
    21:00 +13°C° 1 mm 8 mps 742 mmHg 89%
    22:00 +14°C° 0.1 mm 7 mps 742 mmHg 89%
    23:00 +14°C° 0.1 mm 7 mps 741 mmHg 88%
    Show more